• In Hungary
  • List of Countries
  • For 7 days
  • Water Temperature
  • Satellite Maps
  • Weather Map
  • News
  • Weather Widgets
  • user-avatar
    Login

    Hourly Weather Ertom

    Today, 22 September, Saturday

    Time Temperature Precipitation Wind Pressure Humidity
    00:00 +8°C° 0 mm 2 mps 750 mmHg 92%
    01:00 +8°C° 0 mm 2 mps 750 mmHg 93%
    02:00 +7°C° 0 mm 2 mps 751 mmHg 94%
    03:00 +7°C° 0 mm 2 mps 751 mmHg 95%
    04:00 +7°C° 0 mm 2 mps 751 mmHg 95%
    05:00 +7°C° 0 mm 2 mps 751 mmHg 96%
    06:00 +7°C° 0 mm 2 mps 751 mmHg 96%
    07:00 +9°C° 0 mm 2 mps 751 mmHg 91%
    08:00 +10°C° 0 mm 2 mps 751 mmHg 86%
    09:00 +13°C° 0 mm 2 mps 751 mmHg 81%
    10:00 +13°C° 0 mm 3 mps 751 mmHg 78%
    11:00 +16°C° 0 mm 3 mps 750 mmHg 75%
    12:00 +17°C° 0 mm 3 mps 750 mmHg 72%
    13:00 +18°C° 0 mm 3 mps 750 mmHg 71%
    14:00 +19°C° 0 mm 4 mps 750 mmHg 70%
    15:00 +19°C° 0 mm 4 mps 749 mmHg 69%
    16:00 +18°C° 0 mm 4 mps 749 mmHg 75%
    17:00 +17°C° 0 mm 4 mps 749 mmHg 80%
    18:00 +16°C° 0 mm 3 mps 748 mmHg 85%
    19:00 +16°C° 0 mm 3 mps 748 mmHg 87%
    20:00 +16°C° 0 mm 3 mps 748 mmHg 90%
    21:00 +15°C° 0 mm 4 mps 748 mmHg 92%
    22:00 +15°C° 0 mm 4 mps 748 mmHg 93%
    23:00 +16°C° 0 mm 3 mps 748 mmHg 94%

    Tomorrow, 23 September, Sunday

    Time Temperature Precipitation Wind Pressure Humidity
    00:00 +16°C° 0 mm 3 mps 747 mmHg 95%
    01:00 +16°C° 0 mm 3 mps 747 mmHg 95%
    02:00 +14°C° 0 mm 3 mps 747 mmHg 96%
    03:00 +14°C° 0 mm 3 mps 747 mmHg 96%
    04:00 +14°C° 0 mm 3 mps 747 mmHg 95%
    05:00 +14°C° 0 mm 4 mps 747 mmHg 95%
    06:00 +14°C° 0 mm 4 mps 747 mmHg 95%
    07:00 +14°C° 0 mm 4 mps 747 mmHg 94%
    08:00 +15°C° 0 mm 4 mps 746 mmHg 92%
    09:00 +15°C° 0 mm 4 mps 746 mmHg 91%
    10:00 +15°C° 0 mm 4 mps 746 mmHg 90%
    11:00 +15°C° 0 mm 4 mps 746 mmHg 88%
    12:00 +17°C° 0 mm 3 mps 746 mmHg 87%
    13:00 +17°C° 0 mm 3 mps 746 mmHg 86%
    14:00 +17°C° 0 mm 3 mps 745 mmHg 85%
    15:00 +18°C° 0 mm 3 mps 745 mmHg 83%
    16:00 +17°C° 0.2 mm 3 mps 744 mmHg 86%
    17:00 +17°C° 0.2 mm 3 mps 744 mmHg 88%
    18:00 +16°C° 0.2 mm 3 mps 743 mmHg 90%
    19:00 +16°C° 0.2 mm 3 mps 743 mmHg 88%
    20:00 +17°C° 0.2 mm 4 mps 742 mmHg 87%
    21:00 +16°C° 0.2 mm 5 mps 741 mmHg 85%
    22:00 +15°C° 0.2 mm 5 mps 741 mmHg 85%
    23:00 +15°C° 0.2 mm 5 mps 741 mmHg 86%

    Day after tomorrow, 24 September, Monday

    Time Temperature Precipitation Wind Pressure Humidity
    00:00 +15°C° 0.2 mm 5 mps 741 mmHg 86%
    01:00 +13°C° 0.2 mm 5 mps 741 mmHg 86%
    02:00 +11°C° 0.2 mm 4 mps 742 mmHg 87%
    03:00 +10°C° 0.2 mm 4 mps 742 mmHg 87%
    04:00 +9°C° 0 mm 3 mps 743 mmHg 88%
    05:00 +9°C° 0 mm 3 mps 743 mmHg 90%
    06:00 +8°C° 0 mm 2 mps 744 mmHg 91%
    07:00 +8°C° 0.1 mm 2 mps 744 mmHg 90%
    08:00 +9°C° 0.1 mm 2 mps 744 mmHg 88%
    09:00 +9°C° 0.1 mm 2 mps 745 mmHg 87%
    10:00 +10°C° 0.1 mm 2 mps 745 mmHg 85%
    11:00 +10°C° 0.1 mm 2 mps 745 mmHg 84%
    12:00 +10°C° 0.1 mm 3 mps 745 mmHg 82%
    13:00 +10°C° 0 mm 3 mps 745 mmHg 81%
    14:00 +11°C° 0 mm 3 mps 745 mmHg 79%
    15:00 +11°C° 0 mm 3 mps 745 mmHg 78%
    16:00 +10°C° 0 mm 2 mps 745 mmHg 82%
    17:00 +9°C° 0 mm 2 mps 746 mmHg 86%
    18:00 +8°C° 0 mm 2 mps 746 mmHg 90%
    19:00 +8°C° 0 mm 2 mps 746 mmHg 91%
    20:00 +8°C° 0 mm 2 mps 746 mmHg 92%
    21:00 +7°C° 0 mm 2 mps 746 mmHg 93%
    22:00 +7°C° 0 mm 2 mps 746 mmHg 94%
    23:00 +6°C° 0 mm 2 mps 746 mmHg 95%

    25 September, Tuesday

    Time Temperature Precipitation Wind Pressure Humidity
    00:00 +6°C° 0 mm 2 mps 747 mmHg 96%
    01:00 +5°C° 0 mm 2 mps 747 mmHg 96%
    02:00 +5°C° 0 mm 2 mps 747 mmHg 97%
    03:00 +5°C° 0 mm 2 mps 747 mmHg 97%
    04:00 +5°C° 0 mm 2 mps 747 mmHg 97%
    05:00 +5°C° 0 mm 1 mps 747 mmHg 97%
    06:00 +5°C° 0 mm 1 mps 747 mmHg 97%
    07:00 +6°C° 0 mm 1 mps 747 mmHg 94%
    08:00 +7°C° 0 mm 1 mps 747 mmHg 90%
    09:00 +9°C° 0 mm 1 mps 747 mmHg 87%
    10:00 +8°C° 0 mm 2 mps 747 mmHg 84%
    11:00 +9°C° 0 mm 2 mps 747 mmHg 82%
    12:00 +10°C° 0 mm 2 mps 746 mmHg 79%
    13:00 +10°C° 0.1 mm 2 mps 746 mmHg 80%
    14:00 +10°C° 0.1 mm 3 mps 746 mmHg 82%
    15:00 +10°C° 0.1 mm 3 mps 745 mmHg 83%
    16:00 +9°C° 0.7 mm 3 mps 745 mmHg 87%
    17:00 +9°C° 0.7 mm 3 mps 744 mmHg 90%
    18:00 +8°C° 0.7 mm 3 mps 744 mmHg 93%
    19:00 +8°C° 0.7 mm 3 mps 743 mmHg 93%
    20:00 +8°C° 0.7 mm 3 mps 743 mmHg 93%
    21:00 +8°C° 0.7 mm 3 mps 742 mmHg 94%
    22:00 +8°C° 0.5 mm 3 mps 741 mmHg 93%
    23:00 +8°C° 0.5 mm 3 mps 740 mmHg 93%

    26 September, Wednesday

    Time Temperature Precipitation Wind Pressure Humidity
    00:00 +7°C° 0.5 mm 4 mps 740 mmHg 93%
    01:00 +7°C° 0.9 mm 4 mps 739 mmHg 93%
    02:00 +7°C° 0.9 mm 4 mps 739 mmHg 93%
    03:00 +7°C° 0.9 mm 4 mps 738 mmHg 93%
    04:00 +7°C° 1.5 mm 3 mps 738 mmHg 94%
    05:00 +7°C° 1.5 mm 3 mps 738 mmHg 95%
    06:00 +7°C° 1.5 mm 2 mps 737 mmHg 96%
    07:00 +7°C° 0.6 mm 2 mps 737 mmHg 95%
    08:00 +8°C° 0.6 mm 2 mps 737 mmHg 94%
    09:00 +9°C° 0.6 mm 1 mps 737 mmHg 93%
    10:00 +8°C° 0.5 mm 2 mps 737 mmHg 91%
    11:00 +9°C° 0.5 mm 2 mps 738 mmHg 89%
    12:00 +9°C° 0.5 mm 2 mps 738 mmHg 87%
    13:00 +8°C° 0.5 mm 3 mps 738 mmHg 87%
    14:00 +8°C° 0.5 mm 3 mps 739 mmHg 88%
    15:00 +7°C° 0.5 mm 4 mps 739 mmHg 88%
    16:00 +6°C° 0.4 mm 4 mps 740 mmHg 88%
    17:00 +6°C° 0.4 mm 4 mps 741 mmHg 89%
    18:00 +5°C° 0.4 mm 5 mps 741 mmHg 89%
    19:00 +5°C° 0.2 mm 4 mps 742 mmHg 88%
    20:00 +5°C° 0.2 mm 4 mps 743 mmHg 87%
    21:00 +4°C° 0.2 mm 4 mps 744 mmHg 87%
    22:00 +4°C° 0 mm 4 mps 744 mmHg 87%
    23:00 +4°C° 0 mm 4 mps 745 mmHg 87%

    27 September, Thursday

    Time Temperature Precipitation Wind Pressure Humidity
    00:00 +3°C° 0 mm 4 mps 746 mmHg 86%
    01:00 +2°C° 0 mm 3 mps 747 mmHg 88%
    02:00 +1°C° 0 mm 3 mps 747 mmHg 90%
    03:00 +2°C° 0 mm 2 mps 748 mmHg 91%
    04:00 +1°C° 0 mm 2 mps 748 mmHg 93%
    05:00 +1°C° 0 mm 2 mps 749 mmHg 94%
    06:00 -1°C° 0 mm 2 mps 749 mmHg 96%
    07:00 +1°C° 0 mm 2 mps 749 mmHg 91%
    08:00 +2°C° 0 mm 2 mps 749 mmHg 86%
    09:00 +3°C° 0 mm 2 mps 749 mmHg 81%
    10:00 +3°C° 0 mm 3 mps 748 mmHg 75%
    11:00 +4°C° 0 mm 4 mps 748 mmHg 69%
    12:00 +5°C° 0 mm 4 mps 748 mmHg 64%
    13:00 +5°C° 0 mm 5 mps 747 mmHg 63%
    14:00 +5°C° 0 mm 5 mps 746 mmHg 63%
    15:00 +5°C° 0 mm 5 mps 745 mmHg 63%
    16:00 +5°C° 0 mm 5 mps 744 mmHg 64%
    17:00 +3°C° 0 mm 6 mps 743 mmHg 66%
    18:00 +3°C° 0 mm 6 mps 743 mmHg 68%
    19:00 +3°C° 0.4 mm 6 mps 741 mmHg 70%
    20:00 +3°C° 0.4 mm 7 mps 740 mmHg 72%
    21:00 +3°C° 0.4 mm 7 mps 739 mmHg 75%
    22:00 +3°C° 1 mm 7 mps 738 mmHg 77%
    23:00 +3°C° 1 mm 7 mps 737 mmHg 80%
    Show more